Weather History for KTRI - May, 2013

Change the Weather History Date:

Saturday, May 4, 2013

  Actual Average Record
Temperature  
Mean Temperature 57 °F 60 °F  
Max Temperature 63 °F 73 °F 88 °F (1938)
Min Temperature 50 °F 48 °F 30 °F (1986)
Degree Days  
Heating Degree Days 8 5  
Month to date heating degree days 18 23  
Since 1 July heating degree days 4219 4277  
Cooling Degree Days 0 1  
Month to date cooling degree days 0 4  
Year to date cooling degree days 6 15  
Growing Degree Days 6 (Base 50)    
Moisture  
Dew Point 41 °F    
Average Humidity 54    
Maximum Humidity 66    
Minimum Humidity 41    
Precipitation  
Precipitation 0.03 in 0.12 in 1.18 in (1948)
Month to date precipitation 0.03 0.47  
Year to date precipitation 20.63 14.06  
Snow  
Snow 0.00 in 0.00 in - ()
Month to date snowfall 0.0 0.0  
Since 1 July snowfall 9.2 13.3  
Snow Depth 0.00 in    
Sea Level Pressure  
Sea Level Pressure 29.98 in    
Wind  
Wind Speed 10 mph (East)    
Max Wind Speed 22 mph    
Max Gust Speed 33 mph    
Visibility 10 miles    
Events Rain    
T = Trace of Precipitation, MM = Missing Value Source: NWS Daily Summary

Daily Weather History Graph

Daily Weather History Graph

Search for Another Location

Airport or City:

Trip Planner

Search our weather history database for the weather conditions in past years. The results will help you decide how hot, cold, wet, or windy it might be!

Date:

Astronomy

May. 04, 2013 Rise Set
Actual Time 6:32 AM EDT 8:20 PM EDT
Civil Twilight 6:04 AM EDT 8:48 PM EDT
Nautical Twilight 5:31 AM EDT 9:22 PM EDT
Astronomical Twilight 4:55 AM EDT 9:58 PM EDT
Moon 3:21 AM EDT (5/4) 3:25 PM EDT (5/4)
Length of Visible Light 14h 43m
Length of Day
13h 47m
Waning Crescent, 27% of the Moon is Illuminated
May 4
Waning Crescent
May 9
New
May 18
First Quarter
May 25
Full
May 31
Last Quarter

Hourly Weather History & Observations

Time (EDT) Temp. Dew Point Humidity Pressure Visibility Wind Dir Wind Speed Gust Speed Precip Events Conditions
12:53 AM 60.1 °F 37.0 °F 42% 30.02 in 10.0 mi ESE 16.1 mph 25.3 mph N/A   Overcast
1:53 AM 57.9 °F 37.9 °F 47% 30.01 in 10.0 mi ESE 13.8 mph 25.3 mph N/A   Overcast
2:53 AM 55.9 °F 35.1 °F 45% 30.00 in 10.0 mi SE 8.1 mph 21.9 mph N/A   Overcast
3:53 AM 54.0 °F 33.1 °F 45% 30.00 in 10.0 mi East 11.5 mph - N/A   Mostly Cloudy
4:53 AM 53.1 °F 30.9 °F 43% 30.01 in 10.0 mi East 10.4 mph - N/A   Scattered Clouds
5:53 AM 52.0 °F 28.0 °F 40% 30.01 in 10.0 mi East 10.4 mph 19.6 mph N/A   Mostly Cloudy
6:53 AM 51.1 °F 35.1 °F 54% 30.01 in 10.0 mi East 9.2 mph - N/A   Overcast
7:53 AM 50.0 °F 37.0 °F 61% 30.02 in 10.0 mi ENE 5.8 mph - N/A   Overcast
8:53 AM 53.1 °F 41.0 °F 64% 30.01 in 10.0 mi ENE 6.9 mph - N/A   Mostly Cloudy
9:53 AM 55.9 °F 44.1 °F 64% 29.99 in 10.0 mi East 6.9 mph - N/A   Mostly Cloudy
10:53 AM 57.9 °F 45.0 °F 62% 29.99 in 10.0 mi East 10.4 mph 19.6 mph N/A   Mostly Cloudy
11:53 AM 61.0 °F 46.0 °F 58% 29.99 in 10.0 mi East 15.0 mph 20.7 mph N/A   Mostly Cloudy
12:53 PM 61.0 °F 46.0 °F 58% 29.98 in 10.0 mi East 16.1 mph 26.5 mph N/A   Mostly Cloudy
1:53 PM 61.0 °F 45.0 °F 56% 29.96 in 10.0 mi East 18.4 mph 33.4 mph N/A   Mostly Cloudy
2:53 PM 60.1 °F 45.0 °F 57% 29.96 in 10.0 mi East 16.1 mph 24.2 mph N/A   Overcast
3:53 PM 61.0 °F 45.0 °F 56% 29.95 in 10.0 mi East 16.1 mph 25.3 mph N/A   Overcast
4:53 PM 61.0 °F 45.0 °F 56% 29.94 in 10.0 mi ESE 13.8 mph - N/A   Overcast
5:53 PM 61.0 °F 44.1 °F 54% 29.94 in 10.0 mi ESE 9.2 mph - N/A   Overcast
6:53 PM 61.0 °F 44.1 °F 54% 29.93 in 10.0 mi East 10.4 mph - N/A   Overcast
7:53 PM 60.1 °F 43.0 °F 53% 29.92 in 10.0 mi East 5.8 mph - N/A   Overcast
8:53 PM 59.0 °F 41.0 °F 51% 29.94 in 10.0 mi East 5.8 mph - N/A   Overcast
9:53 PM 57.9 °F 42.1 °F 56% 29.96 in 10.0 mi ESE 6.9 mph - N/A   Overcast
10:53 PM 57.0 °F 42.1 °F 57% 29.98 in 10.0 mi ESE 12.7 mph 19.6 mph N/A   Overcast
11:53 PM 52.0 °F 45.0 °F 77% 29.96 in 9.0 mi Variable 4.6 mph - 0.02 in Rain Light Rain